Regional Weather Roundup
Issued by NWS

Home | Current Version | Previous Version | Graphics & Text | Print | Product List | Glossary On
Versions: 1 2 3 4 5 6 7 8 9 10 11 12 13 14 15 16 17 18 19 20 21 22 23 24 25 26 27 28 29 30 31 32 33 34 35 36 37 38 39 40 41 42 43 44 45 46 47 48 49 50
000
ASUS43 KIND 252309
RWRIN

WEATHER ROUNDUP FOR INDIANA
NATIONAL WEATHER SERVICE INDIANAPOLIS IN
700 PM EDT FRI JUL 25 2014

NOTE: "FAIR" INDICATES FEW OR NO CLOUDS BELOW 12,000 FEET WITH NO
SIGNIFICANT WEATHER AND/OR OBSTRUCTIONS TO VISIBILITY.

* - STATION DOES NOT REPORT WEATHER SUCH AS PRECIPITATION OR FOG.

+ - STATION NOT QUALITY CONTROLLED BY THE NATIONAL WEATHER SERVICE.
    USE DATA WITH CAUTION...ESPECIALLY DEWPOINT AND RELATIVE
    HUMIDITY OBSERVATIONS.

INZ001>003-010>013-019-020-260000-
NORTHWEST INDIANA

CITY           SKY/WX    TMP DP  RH WIND       PRES   REMARKS
GARY /AIRPORT/ CLOUDY    73  59  60 SW9       29.96R
KNOX *+        MOSUNNY   73  57  57 SW7       29.97S
LA PORTE +     CLOUDY    71  56  59 S7        29.98S
MICHIGAN CITY+ CLOUDY    70  55  60 S6        29.97S
MONTICELLO +   CLOUDY    73  59  61 SW9       29.97S
RENSSELAER +   CLOUDY    72  61  68 S5        29.97S
VALPARAISO     CLOUDY    71  57  61 S6        29.98S

$$

LMZ046-743>745-260000-
SOUTHERN LAKE MICHIGAN

STATION/POSITION TIME  TEMP WIND        PRES
                       AIR  DIR/SP/G
                 (UTC) (F)  (DEG/KT/KT) (MB)
BURNS HARBOR     2200   72  190/ 10/ 13 1014.9S
MICHIGAN CITY    2300   71  180/  9/ 12   N/A

$$

INZ004-005-014>016-021>024-260000-
NORTH CENTRAL INDIANA

CITY           SKY/WX    TMP DP  RH WIND       PRES   REMARKS
ELKHART        CLOUDY    72  57  60 S3        29.98F
GOSHEN         CLOUDY    71  59  65 S3        29.97F
LOGANSPORT +   CLOUDY    70  57  64 S3        29.99R
PERU/GRISSOM   CLOUDY    70  60  69 SW6       29.99R
ROCHESTER +    CLOUDY    73  55  53 CALM      29.99S
SOUTH BEND     CLOUDY    72  58  61 SW5       29.98S
WARSAW +       CLOUDY    70  55  60 CALM      29.99S

$$

INZ006>009-017-018-025>027-260000-
NORTHEAST INDIANA

CITY           SKY/WX    TMP DP  RH WIND       PRES   REMARKS
ANGOLA *+      PTSUNNY   72  59  64 SW3       29.99F
AUBURN +       CLOUDY    72  54  53 CALM      30.00F
FORT WAYNE     CLOUDY    72  55  55 S3        29.99F
HUNTINGTON +   CLOUDY    71  58  64 CALM      29.98S

$$

INZ028-029-035-036-043>045-051>053-260000-
WEST CENTRAL INDIANA

CITY           SKY/WX    TMP DP  RH WIND       PRES   REMARKS
GREENCASTLE +  MOSUNNY   72  57  60 S6        29.98S
LAFAYETTE      SUNNY     73  57  57 VRB7      29.97R
TERRE HAUTE    MOSUNNY   72  59  63 SE8       29.95S

$$

INZ030>032-037>040-046>048-054>057-064-065-260000-
CENTRAL INDIANA

CITY           SKY/WX    TMP DP  RH WIND       PRES   REMARKS
CP ATTERBURY + CLOUDY    73  61  64 S6        29.97F
COLUMBUS       MOSUNNY   75  59  57 SE6       29.97F
GREENWOOD *+   CLOUDY    75  61  60 S9        29.98F
INDIANAPOLIS   PTSUNNY   73  58  59 S10       29.96F
-EAGLE CREEK   PTSUNNY   73  56  54 S8        29.96F
KOKOMO *+      PTSUNNY   72  57  60 SW7       29.99R
MARION +       CLOUDY    70  56  62 S5        29.99R HAZE
MT COMFORT *+  CLOUDY    72  64  78 S6        29.98F
SHELBYVILLE    CLOUDY    74  60  61 SE7       29.97F
ZIONSVILLE +   PTSUNNY   74  55  50 S12       29.98S

$$

INZ033-034-041-042-049-050-058-059-260000-
EAST CENTRAL INDIANA

CITY           SKY/WX    TMP DP  RH WIND       PRES   REMARKS
MUNCIE         CLOUDY    71  55  56 S7        29.98F

$$

INZ060-061-067>069-081>083-085>088-260000-
SOUTHWEST INDIANA

CITY           SKY/WX    TMP DP  RH WIND       PRES   REMARKS
EVANSVILLE     CLOUDY    75  58  55 S10       29.91F
HUNTINGBURG *+ CLOUDY    75  57  53 S13       29.91F
WASHINGTON +   CLOUDY    74  61  63 SE9       29.90F

$$

INZ062-063-066-070>080-084-089>092-260000-
SOUTH CENTRAL AND SOUTHEAST INDIANA

CITY           SKY/WX    TMP DP  RH WIND       PRES   REMARKS
BLOOMINGTON    PTSUNNY   74  59  59 SE8       29.95F
SEYMOUR +      CLOUDY    72  45  37 S5        29.97

$$




USA.gov is the U.S. government's official web portal to all federal, state and local government web resources and services.